NORTHEAST SUFFOLK  -  Winter Weather Advisory Winter Weather Advisory     Winter Weather Advisory Winter Weather Advisory        NORTHERN NASSAU  -  Winter Weather Advisory Winter Weather Advisory        NORTHWEST SUFFOLK  -  Winter Weather Advisory Winter Weather Advisory     Winter Weather Advisory Winter Weather Advisory        SOUTHEAST SUFFOLK  -  Winter Weather Advisory Winter Weather Advisory     Winter Weather Advisory Winter Weather Advisory        SOUTHERN NASSAU  -  Winter Weather Advisory Winter Weather Advisory        SOUTHWEST SUFFOLK  -  Winter Weather Advisory Winter Weather Advisory     Winter Weather Advisory Winter Weather Advisory      

Active alerts

Northern Nassau
  Details for Northern Nassau Winter Weather Advisory
Southern Nassau
  Details for Southern Nassau Winter Weather Advisory
Northwest Suffolk
  Details for Northwest Suffolk Winter Weather Advisory  +1 additional alert
Southwest Suffolk
  Details for Southwest Suffolk Winter Weather Advisory  +1 additional alert
Northeast Suffolk
  Details for Northeast Suffolk Winter Weather Advisory  +1 additional alert
Southeast Suffolk
  Details for Southeast Suffolk Winter Weather Advisory  +1 additional alert


WXM80 ListenWXM80 Stop

You find our weather info also at:

UK Metoffice

WeatherCloud

Weather Underground

Northeastern Weather Network

AWEKAS

Citizen Weather Observer Program (CWOP)

HAMweather, WeatherForYou, PWS Weather


Weather Underground History page Text

Daily Summary for April 25, 2017 Units:  Metric    English   Both
« Previous Day
Next Day »
Daily Weekly Monthly Yearly Custom
  High: Low: Average:
Temperature: 10.8 °C 8.8 °C 9.7 °C
Dew Point: 10.5 °C 8.1 °C 9.3 °C
Humidity: 98 % 94 % 97 %
Wind Speed: 18.8 km/h 4 km/h 12.1 km/h
Wind Gust: 32.2 km/h - -
Wind:- - East
Pressure: 1019.5 hPa 1010.7 hPa -
Precipitation: 15.49 mm    
Historical Graphs
 
 
Tabular Data for April 25, 2017
Time Temperature Dew Point Pressure Wind Wind Speed Wind Gust Humidity Rainfall Rate (Hourly)
00:03 9.1 °C 8.2 °C 1019.5 hPa ENE 5.5 km/h 6.4 km/h 94 % 0 mm
00:08 9.1 °C 8.2 °C 1019.5 hPa East 5.8 km/h 11.1 km/h 94 % 0 mm
00:13 9.1 °C 8.2 °C 1019.5 hPa ENE 4 km/h 9.3 km/h 94 % 0 mm
00:18 9.1 °C 8.2 °C 1019.5 hPa ENE 4 km/h 6.4 km/h 94 % 0 mm
00:23 9.1 °C 8.2 °C 1019.5 hPa ENE 4.8 km/h 8 km/h 94 % 0 mm
00:28 9.1 °C 8.2 °C 1019.5 hPa ENE 4 km/h 5.6 km/h 94 % 0 mm
00:33 9.1 °C 8.2 °C 1019.5 hPa NE 5.6 km/h 7.4 km/h 94 % 0 mm
00:38 9.1 °C 8.2 °C 1019.5 hPa ENE 5.8 km/h 9.3 km/h 94 % 0 mm
00:43 9.1 °C 8.2 °C 1019.5 hPa ENE 4.8 km/h 12.9 km/h 94 % 0 mm
00:48 9.1 °C 8.2 °C 1019.5 hPa ENE 4.3 km/h 7.4 km/h 94 % 0 mm
00:53 9.1 °C 8.2 °C 1019.5 hPa ENE 4.3 km/h 7.4 km/h 94 % 0 mm
00:58 9.1 °C 8.2 °C 1019.5 hPa ENE 7.1 km/h 8 km/h 94 % 0 mm
01:03 9.1 °C 8.2 °C 1019.2 hPa ENE 5 km/h 7.4 km/h 94 % 0 mm
01:08 9.1 °C 8.3 °C 1019.5 hPa ENE 5.3 km/h 8 km/h 95 % 0 mm
01:13 9.1 °C 8.3 °C 1019.5 hPa East 5.3 km/h 12.9 km/h 95 % 0 mm
01:18 9.1 °C 8.3 °C 1019.2 hPa ENE 7.6 km/h 11.1 km/h 95 % 0 mm
01:23 9 °C 8.2 °C 1019.2 hPa East 6 km/h 11.1 km/h 95 % 0 mm
01:28 9 °C 8.2 °C 1019.2 hPa ENE 6.4 km/h 7.4 km/h 95 % 0 mm
01:33 9 °C 8.2 °C 1019.2 hPa ENE 8.7 km/h 13 km/h 95 % 0 mm
01:38 8.9 °C 8.2 °C 1019.2 hPa ENE 7.7 km/h 13 km/h 95 % 0 mm
01:43 8.9 °C 8.2 °C 1019.2 hPa East 8.9 km/h 13 km/h 95 % 0 mm
01:48 8.9 °C 8.1 °C 1019.2 hPa East 6.4 km/h 11.1 km/h 95 % 0.25 mm
01:53 8.9 °C 8.1 °C 1019.2 hPa ENE 6.9 km/h 11.3 km/h 95 % 0.25 mm
01:58 8.9 °C 8.2 °C 1019.2 hPa ENE 6.8 km/h 7.4 km/h 95 % 0.25 mm
02:03 8.9 °C 8.3 °C 1019.2 hPa ENE 5.5 km/h 9.3 km/h 96 % 0.25 mm
02:08 8.9 °C 8.3 °C 1018.8 hPa East 7.2 km/h 11.1 km/h 96 % 0.25 mm
02:13 8.9 °C 8.3 °C 1018.8 hPa East 6.4 km/h 9.7 km/h 96 % 0.25 mm
02:18 8.9 °C 8.3 °C 1018.8 hPa ENE 7.2 km/h 11.1 km/h 96 % 0.25 mm
02:24 8.9 °C 8.3 °C 1018.8 hPa ENE 7.6 km/h 11.1 km/h 96 % 0.25 mm
02:29 8.9 °C 8.3 °C 1018.5 hPa ENE 5.5 km/h 11.3 km/h 96 % 0.25 mm
02:34 8.9 °C 8.3 °C 1018.5 hPa ENE 7.9 km/h 13 km/h 96 % 0.25 mm
02:39 8.9 °C 8.3 °C 1018.5 hPa East 8.9 km/h 14.8 km/h 96 % 0.51 mm
02:44 8.9 °C 8.3 °C 1018.5 hPa East 9 km/h 11.1 km/h 96 % 0.51 mm
02:49 8.9 °C 8.3 °C 1018.5 hPa ENE 8.4 km/h 11.1 km/h 96 % 0.25 mm
02:54 8.9 °C 8.3 °C 1018.2 hPa ENE 5.6 km/h 7.4 km/h 96 % 0.25 mm
02:59 8.9 °C 8.3 °C 1018.2 hPa ENE 8.2 km/h 11.3 km/h 96 % 0.25 mm
03:04 8.9 °C 8.3 °C 1018.2 hPa East 10.9 km/h 14.8 km/h 96 % 0.25 mm
03:09 8.9 °C 8.3 °C 1018.2 hPa East 10.9 km/h 14.8 km/h 96 % 0.25 mm
03:14 8.9 °C 8.3 °C 1018.2 hPa East 10.5 km/h 13 km/h 96 % 0.25 mm
03:19 8.9 °C 8.3 °C 1018.5 hPa East 10 km/h 11.3 km/h 96 % 0.25 mm
03:24 8.9 °C 8.3 °C 1018.2 hPa ENE 8.4 km/h 13 km/h 96 % 0.25 mm
03:29 8.9 °C 8.3 °C 1018.2 hPa ENE 8.9 km/h 13 km/h 96 % 0.25 mm
03:34 8.9 °C 8.3 °C 1018.2 hPa ENE 8.2 km/h 11.1 km/h 96 % 0.25 mm
03:39 8.9 °C 8.3 °C 1018.2 hPa East 8 km/h 11.1 km/h 96 % 0.25 mm
03:44 8.9 °C 8.4 °C 1018.2 hPa East 9 km/h 13 km/h 97 % 0.25 mm
03:49 8.9 °C 8.4 °C 1018.2 hPa ENE 9.2 km/h 13 km/h 97 % 0.25 mm
03:54 8.9 °C 8.4 °C 1018.2 hPa East 8.4 km/h 13 km/h 97 % 0.51 mm
03:59 8.8 °C 8.4 °C 1017.8 hPa ENE 9.8 km/h 14.8 km/h 97 % 0.51 mm
04:04 8.8 °C 8.4 °C 1017.8 hPa ENE 10.3 km/h 16.7 km/h 97 % 0.51 mm
04:09 8.8 °C 8.4 °C 1017.8 hPa ENE 11.1 km/h 14.5 km/h 97 % 0.51 mm
04:14 8.9 °C 8.4 °C 1018.2 hPa ENE 8.4 km/h 11.1 km/h 97 % 0.51 mm
04:19 8.9 °C 8.4 °C 1018.2 hPa ENE 12.1 km/h 16.7 km/h 97 % 0.51 mm
04:24 8.9 °C 8.5 °C 1018.2 hPa ENE 10.5 km/h 18.5 km/h 97 % 0.51 mm
04:29 8.9 °C 8.5 °C 1018.2 hPa ENE 9.7 km/h 13 km/h 97 % 0.51 mm
04:31 8.9 °C 8.5 °C 1018.2 hPa ENE 8 km/h 12.9 km/h 97 % 0 mm
04:36 8.9 °C 8.5 °C 1018.2 hPa ENE 9.7 km/h 16.1 km/h 97 % 0 mm
04:41 9 °C 8.6 °C 1018.2 hPa ENE 9.7 km/h 14.5 km/h 97 % 0 mm
04:46 9 °C 8.6 °C 1018.2 hPa East 11.3 km/h 14.5 km/h 97 % 0 mm
04:51 9 °C 8.6 °C 1018.2 hPa East 9.7 km/h 16.1 km/h 97 % 0 mm
04:56 9 °C 8.6 °C 1018.2 hPa East 11.3 km/h 16.1 km/h 97 % 0 mm
05:01 9 °C 8.6 °C 1018.2 hPa East 9.7 km/h 14.8 km/h 97 % 0.25 mm
05:06 9 °C 8.6 °C 1018.2 hPa ENE 8.9 km/h 14.8 km/h 97 % 0.25 mm
05:11 9 °C 8.6 °C 1018.2 hPa East 10.3 km/h 14.8 km/h 97 % 0.25 mm
05:16 9 °C 8.6 °C 1018.2 hPa NE 10.5 km/h 14.8 km/h 97 % 0.25 mm
05:21 9 °C 8.6 °C 1017.8 hPa East 10.3 km/h 18.5 km/h 97 % 0.25 mm
05:26 9 °C 8.6 °C 1017.8 hPa ENE 12.6 km/h 20.4 km/h 97 % 0.51 mm
05:31 9 °C 8.6 °C 1017.8 hPa East 11.3 km/h 14.8 km/h 97 % 0.51 mm
05:36 9 °C 8.6 °C 1018.2 hPa East 11.4 km/h 18.5 km/h 97 % 0.76 mm
05:41 9.1 °C 8.6 °C 1018.2 hPa ENE 15 km/h 22.2 km/h 97 % 0.76 mm
05:46 9.1 °C 8.6 °C 1018.2 hPa ENE 13.7 km/h 16.7 km/h 97 % 0.76 mm
05:51 9.1 °C 8.6 °C 1017.8 hPa ENE 13.5 km/h 18.5 km/h 97 % 0.51 mm
05:56 9.1 °C 8.7 °C 1018.2 hPa East 12.6 km/h 16.7 km/h 97 % 0.51 mm
06:01 9.1 °C 8.6 °C 1018.2 hPa ENE 13.8 km/h 18.5 km/h 97 % 0.51 mm
06:06 9.1 °C 8.6 °C 1018.2 hPa East 12.9 km/h 18.5 km/h 97 % 0.51 mm
06:11 9.1 °C 8.7 °C 1018.2 hPa East 13.5 km/h 16.7 km/h 97 % 0.51 mm
06:16 9.1 °C 8.7 °C 1018.2 hPa ENE 16.4 km/h 24.1 km/h 97 % 0.51 mm
06:21 9.2 °C 8.7 °C 1018.2 hPa East 14.6 km/h 18.5 km/h 97 % 0.51 mm
06:26 9.2 °C 8.7 °C 1018.2 hPa ENE 14.2 km/h 20.4 km/h 97 % 0.25 mm
06:31 9.2 °C 8.7 °C 1018.2 hPa ENE 14.5 km/h 22.2 km/h 97 % 0.25 mm
06:36 9.2 °C 8.7 °C 1018.2 hPa East 14.2 km/h 22.2 km/h 97 % 0 mm
06:41 9.2 °C 8.8 °C 1018.5 hPa East 15.6 km/h 25.7 km/h 97 % 0 mm
06:46 9.2 °C 8.8 °C 1018.5 hPa ENE 14.3 km/h 22.2 km/h 97 % 0 mm
06:51 9.2 °C 8.8 °C 1018.5 hPa ENE 15.1 km/h 25.9 km/h 97 % 0 mm
06:56 9.3 °C 8.8 °C 1018.5 hPa East 14 km/h 17.7 km/h 97 % 0 mm
07:01 9.3 °C 8.8 °C 1018.5 hPa East 14.6 km/h 19.3 km/h 97 % 0 mm
07:06 9.3 °C 8.8 °C 1018.5 hPa East 16.3 km/h 25.7 km/h 97 % 0 mm
07:12 9.3 °C 8.8 °C 1018.5 hPa ENE 14.5 km/h 22.2 km/h 97 % 0 mm
07:17 9.3 °C 8.8 °C 1018.5 hPa ENE 14.2 km/h 20.4 km/h 97 % 0 mm
07:22 9.3 °C 8.8 °C 1018.5 hPa ENE 15.3 km/h 19.3 km/h 97 % 0 mm
07:27 9.3 °C 8.8 °C 1018.5 hPa ENE 15 km/h 19.3 km/h 97 % 0 mm
07:32 9.3 °C 8.8 °C 1018.5 hPa East 15.4 km/h 18.5 km/h 97 % 0 mm
07:37 9.3 °C 8.9 °C 1018.5 hPa East 15.4 km/h 22.2 km/h 97 % 0 mm
07:42 9.3 °C 8.9 °C 1018.5 hPa ENE 15.9 km/h 22.2 km/h 97 % 0 mm
07:47 9.4 °C 8.9 °C 1018.8 hPa East 15.9 km/h 20.4 km/h 97 % 0 mm
07:52 9.4 °C 9 °C 1018.8 hPa ENE 15 km/h 20.4 km/h 97 % 0 mm
07:57 9.4 °C 9 °C 1018.8 hPa ENE 13.7 km/h 18.5 km/h 97 % 0 mm
08:02 9.4 °C 9 °C 1018.8 hPa ENE 16.3 km/h 22.2 km/h 97 % 0 mm
08:07 9.4 °C 9 °C 1018.8 hPa East 12.9 km/h 16.7 km/h 97 % 0 mm
08:12 9.4 °C 9 °C 1018.8 hPa East 12.2 km/h 18.5 km/h 97 % 0 mm
08:17 9.4 °C 9 °C 1018.8 hPa ENE 14.2 km/h 18.5 km/h 97 % 0 mm
08:22 9.5 °C 9.1 °C 1018.8 hPa ENE 13.7 km/h 18.5 km/h 97 % 0 mm
08:27 9.5 °C 9.2 °C 1018.8 hPa East 14.8 km/h 20.4 km/h 98 % 0 mm
08:32 9.6 °C 9.3 °C 1018.8 hPa East 14.5 km/h 16.7 km/h 98 % 0 mm
08:37 9.6 °C 9.3 °C 1018.8 hPa East 13.4 km/h 20.4 km/h 98 % 0 mm
08:42 9.6 °C 9.3 °C 1018.8 hPa East 13.2 km/h 16.7 km/h 98 % 0 mm
08:47 9.6 °C 9.1 °C 1018.8 hPa ENE 13 km/h 16.7 km/h 97 % 0 mm
08:52 9.6 °C 9.2 °C 1018.8 hPa ENE 13.5 km/h 18.5 km/h 97 % 0 mm
08:57 9.6 °C 9.2 °C 1018.5 hPa East 12.2 km/h 16.7 km/h 97 % 0 mm
09:02 9.6 °C 9.2 °C 1018.8 hPa East 11.9 km/h 14.8 km/h 97 % 0 mm
09:07 9.6 °C 9.2 °C 1018.8 hPa East 11.3 km/h 13 km/h 97 % 0 mm
09:12 9.7 °C 9.2 °C 1018.8 hPa East 13.4 km/h 14.8 km/h 97 % 0 mm
09:17 9.7 °C 9.3 °C 1018.8 hPa ENE 12.7 km/h 16.7 km/h 97 % 0 mm
09:22 9.7 °C 9.3 °C 1018.8 hPa East 13.2 km/h 16.7 km/h 97 % 0 mm
09:27 9.7 °C 9.3 °C 1018.8 hPa ENE 11.6 km/h 14.8 km/h 97 % 0.25 mm
09:32 9.7 °C 9.3 °C 1018.5 hPa East 13 km/h 20.4 km/h 97 % 0.25 mm
09:37 9.7 °C 9.2 °C 1018.5 hPa ENE 10.8 km/h 16.7 km/h 97 % 0.51 mm
09:42 9.7 °C 9.2 °C 1018.5 hPa ENE 11.6 km/h 16.7 km/h 97 % 0.51 mm
09:48 9.7 °C 9.3 °C 1018.5 hPa East 10.3 km/h 13 km/h 97 % 0.51 mm
09:53 9.7 °C 9.3 °C 1018.5 hPa East 12.2 km/h 14.8 km/h 97 % 0.51 mm
09:58 9.8 °C 9.3 °C 1018.8 hPa NE 14 km/h 20.4 km/h 97 % 0.51 mm
10:03 9.8 °C 9.3 °C 1018.5 hPa East 15.9 km/h 22.2 km/h 97 % 0.51 mm
10:08 9.8 °C 9.3 °C 1018.5 hPa East 12.9 km/h 14.8 km/h 97 % 0.51 mm
10:13 9.7 °C 9.3 °C 1018.5 hPa ENE 11.9 km/h 14.8 km/h 97 % 1.02 mm
10:18 9.8 °C 9.3 °C 1018.5 hPa ENE 11.7 km/h 14.8 km/h 97 % 1.52 mm
10:23 9.7 °C 9.3 °C 1018.5 hPa East 11.1 km/h 14.8 km/h 97 % 2.03 mm
10:28 9.8 °C 9.3 °C 1018.8 hPa East 9.7 km/h 11.1 km/h 97 % 2.03 mm
10:33 9.8 °C 9.3 °C 1018.5 hPa East 10.5 km/h 13 km/h 97 % 2.03 mm
10:38 9.8 °C 9.3 °C 1018.5 hPa East 11.7 km/h 13 km/h 97 % 2.03 mm
10:43 9.8 °C 9.4 °C 1018.5 hPa ESE 9.7 km/h 13 km/h 97 % 2.03 mm
10:48 9.8 °C 9.3 °C 1018.5 hPa East 10.9 km/h 14.8 km/h 97 % 2.03 mm
10:53 9.8 °C 9.4 °C 1018.5 hPa East 10.3 km/h 13 km/h 97 % 2.03 mm
10:58 9.8 °C 9.4 °C 1018.5 hPa East 11.3 km/h 13 km/h 97 % 2.03 mm
11:03 9.8 °C 9.4 °C 1018.5 hPa East 9.3 km/h 13 km/h 97 % 2.03 mm
11:08 9.8 °C 9.6 °C 1018.5 hPa East 11.3 km/h 13 km/h 98 % 2.03 mm
11:13 9.9 °C 9.6 °C 1018.8 hPa East 13.8 km/h 17.7 km/h 98 % 1.52 mm
11:14 9.9 °C 9.7 °C 1018.8 hPa East 13.5 km/h 18.5 km/h 98 % 1.52 mm
11:19 10 °C 9.7 °C 1018.8 hPa East 12.1 km/h 16.7 km/h 98 % 1.27 mm
11:21 10 °C 9.7 °C 1018.8 hPa East 12.1 km/h 14.8 km/h 98 % 1.02 mm
11:26 10.1 °C 9.8 °C 1018.5 hPa East 12.6 km/h 13 km/h 98 % 0.76 mm
11:31 10.1 °C 9.8 °C 1018.2 hPa ENE 11.4 km/h 14.8 km/h 98 % 0.51 mm
11:36 10.2 °C 9.9 °C 1018.5 hPa East 11.7 km/h 12.9 km/h 98 % 0.76 mm
11:41 10.2 °C 9.9 °C 1018.5 hPa ENE 12.1 km/h 14.8 km/h 98 % 0.51 mm
11:46 10.3 °C 10 °C 1018.5 hPa East 13.7 km/h 14.8 km/h 98 % 0.51 mm
11:51 10.3 °C 10.1 °C 1018.2 hPa East 12.9 km/h 16.7 km/h 98 % 0.51 mm
11:56 10.4 °C 10.2 °C 1018.2 hPa East 14.8 km/h 22.2 km/h 98 % 0.51 mm
12:01 10.4 °C 10.2 °C 1018.2 hPa East 15.1 km/h 18.5 km/h 98 % 0.51 mm
12:06 10.4 °C 10.2 °C 1017.8 hPa East 12.2 km/h 16.7 km/h 98 % 0.51 mm
12:11 10.3 °C 10.1 °C 1017.8 hPa East 14.3 km/h 20.9 km/h 98 % 0.51 mm
12:16 10.3 °C 10 °C 1017.8 hPa East 13.7 km/h 18.5 km/h 98 % 0.25 mm
12:21 10.2 °C 9.9 °C 1017.8 hPa East 13.4 km/h 14.8 km/h 98 % 0.25 mm
12:26 10.2 °C 9.7 °C 1017.8 hPa East 14.5 km/h 20.9 km/h 97 % 0.25 mm
12:31 10.2 °C 9.9 °C 1017.5 hPa East 14 km/h 20.4 km/h 98 % 0 mm
12:36 10.3 °C 10 °C 1017.5 hPa East 13 km/h 14.8 km/h 98 % 0 mm
12:41 10.3 °C 10.1 °C 1017.5 hPa East 12.4 km/h 16.7 km/h 98 % 0 mm
12:46 10.4 °C 10.1 °C 1017.8 hPa East 16.1 km/h 22.2 km/h 98 % 0 mm
12:51 10.5 °C 10.2 °C 1017.8 hPa East 13 km/h 24.1 km/h 98 % 0.51 mm
12:56 10.6 °C 10.3 °C 1017.8 hPa East 14 km/h 18.5 km/h 98 % 0.51 mm
13:01 10.7 °C 10.4 °C 1017.5 hPa East 13.5 km/h 16.7 km/h 98 % 1.02 mm
13:06 10.7 °C 10.4 °C 1017.5 hPa East 12.7 km/h 18.5 km/h 98 % 1.02 mm
13:11 10.8 °C 10.5 °C 1017.5 hPa East 11.7 km/h 16.7 km/h 98 % 1.02 mm
13:16 10.8 °C 10.5 °C 1017.2 hPa East 14.2 km/h 16.7 km/h 98 % 1.02 mm
13:21 10.7 °C 10.4 °C 1017.2 hPa ENE 12.4 km/h 14.8 km/h 98 % 1.02 mm
13:26 10.7 °C 10.4 °C 1017.2 hPa ENE 11.4 km/h 14.8 km/h 98 % 1.02 mm
13:31 10.7 °C 10.4 °C 1016.8 hPa ENE 12.7 km/h 16.7 km/h 98 % 1.02 mm
13:32 10.7 °C 10.4 °C 1016.8 hPa ENE 11.9 km/h 16.7 km/h 98 % 1.02 mm
13:37 10.6 °C 10.3 °C 1016.8 hPa East 11.1 km/h 14.8 km/h 98 % 1.02 mm
13:42 10.6 °C 10.3 °C 1016.8 hPa ENE 11.9 km/h 14.8 km/h 98 % 1.02 mm
13:47 10.4 °C 10 °C 1016.5 hPa East 12.2 km/h 14.8 km/h 97 % 0.76 mm
13:52 10.4 °C 9.9 °C 1016.8 hPa East 11.9 km/h 14.8 km/h 97 % 0.51 mm
13:57 10.4 °C 9.9 °C 1016.8 hPa East 11.7 km/h 14.8 km/h 97 % 0.25 mm
14:02 10.3 °C 10.1 °C 1016.8 hPa East 13.7 km/h 16.7 km/h 98 % 0 mm
14:07 10.3 °C 10 °C 1016.8 hPa East 12.2 km/h 20.4 km/h 98 % 0 mm
14:12 10.3 °C 10 °C 1016.5 hPa East 9.8 km/h 13 km/h 98 % 0 mm
14:17 10.3 °C 10.1 °C 1016.5 hPa ENE 11.6 km/h 14.8 km/h 98 % 0 mm
14:22 10.5 °C 10.2 °C 1016.5 hPa East 11.1 km/h 14.8 km/h 98 % 0.25 mm
14:27 10.6 °C 10.3 °C 1016.5 hPa East 12.9 km/h 17.7 km/h 98 % 0.25 mm
14:32 10.5 °C 10.2 °C 1016.5 hPa East 12.9 km/h 14.8 km/h 98 % 0.25 mm
14:38 10.4 °C 10.1 °C 1016.5 hPa ENE 11.9 km/h 14.8 km/h 98 % 0.25 mm
14:43 10.3 °C 10.1 °C 1016.1 hPa East 12.9 km/h 14.8 km/h 98 % 0.25 mm
14:48 10.3 °C 10.1 °C 1016.1 hPa ENE 10.1 km/h 14.8 km/h 98 % 0.25 mm
14:53 10.4 °C 10.1 °C 1016.1 hPa East 11.6 km/h 14.8 km/h 98 % 0.25 mm
14:58 10.4 °C 10.2 °C 1015.8 hPa ENE 12.6 km/h 16.7 km/h 98 % 0.25 mm
15:03 10.4 °C 10.2 °C 1015.8 hPa East 12.9 km/h 16.7 km/h 98 % 0.25 mm
15:08 10.4 °C 10.1 °C 1016.1 hPa East 10.9 km/h 14.5 km/h 98 % 0.25 mm
15:13 10.4 °C 10.1 °C 1015.8 hPa East 10.8 km/h 13 km/h 98 % 0.25 mm
15:18 10.3 °C 10.1 °C 1015.8 hPa East 11.1 km/h 14.8 km/h 98 % 0.25 mm
15:23 10.3 °C 10.1 °C 1015.8 hPa East 10.1 km/h 12.9 km/h 98 % 0 mm
15:28 10.3 °C 10.1 °C 1015.8 hPa East 9.3 km/h 14.8 km/h 98 % 0 mm
15:33 10.3 °C 10.1 °C 1015.8 hPa East 11.3 km/h 14.8 km/h 98 % 0 mm
15:39 10.3 °C 10.1 °C 1015.5 hPa ENE 11.1 km/h 13 km/h 98 % 0 mm
15:44 10.3 °C 10.1 °C 1015.5 hPa ENE 9 km/h 13 km/h 98 % 0 mm
15:49 10.3 °C 10.1 °C 1015.1 hPa ENE 10.9 km/h 14.8 km/h 98 % 0 mm
15:54 10.3 °C 10.1 °C 1015.1 hPa East 13.5 km/h 16.7 km/h 98 % 0 mm
15:59 10.3 °C 10.1 °C 1015.1 hPa East 12.1 km/h 14.8 km/h 98 % 0 mm
16:04 10.3 °C 10 °C 1015.1 hPa East 11.4 km/h 14.8 km/h 98 % 0 mm
16:09 10.2 °C 9.9 °C 1014.8 hPa East 10.8 km/h 14.8 km/h 98 % 0 mm
16:14 10.2 °C 9.9 °C 1014.8 hPa ENE 11.6 km/h 14.5 km/h 98 % 0 mm
16:19 10.2 °C 9.9 °C 1014.4 hPa East 12.1 km/h 14.8 km/h 98 % 0 mm
16:24 10.2 °C 9.9 °C 1014.4 hPa East 12.6 km/h 16.7 km/h 98 % 0 mm
16:29 10.2 °C 9.9 °C 1014.8 hPa ENE 10.5 km/h 16.7 km/h 98 % 0 mm
16:34 10.2 °C 9.9 °C 1014.4 hPa East 13.8 km/h 18.5 km/h 98 % 0 mm
16:39 10.2 °C 9.9 °C 1014.4 hPa East 15 km/h 16.7 km/h 98 % 0 mm
16:45 10.2 °C 9.9 °C 1014.8 hPa East 13.7 km/h 18.5 km/h 98 % 0 mm
16:50 10.2 °C 9.9 °C 1014.4 hPa East 13 km/h 16.7 km/h 98 % 0 mm
16:55 10.2 °C 9.9 °C 1014.4 hPa East 10.8 km/h 14.5 km/h 98 % 0 mm
17:00 10.2 °C 9.9 °C 1014.4 hPa East 13.2 km/h 16.7 km/h 98 % 0 mm
17:05 10.2 °C 9.9 °C 1014.4 hPa East 15.6 km/h 20.4 km/h 98 % 0.25 mm
17:10 10.2 °C 9.9 °C 1014.4 hPa East 15.3 km/h 20.4 km/h 98 % 0.25 mm
17:15 10.2 °C 9.9 °C 1014.4 hPa East 12.4 km/h 16.7 km/h 98 % 0.25 mm
17:20 10.2 °C 9.9 °C 1014.1 hPa East 12.1 km/h 16.7 km/h 98 % 0.51 mm
17:25 10.2 °C 9.9 °C 1013.8 hPa ENE 14 km/h 16.7 km/h 98 % 0.51 mm
17:30 10.2 °C 9.9 °C 1013.8 hPa NE 13.4 km/h 20.4 km/h 98 % 0.51 mm
17:36 10.2 °C 9.9 °C 1013.8 hPa ENE 12.9 km/h 22.5 km/h 98 % 0.25 mm
17:40 10.2 °C 9.9 °C 1013.4 hPa ENE 15.3 km/h 18.5 km/h 98 % 0.76 mm
17:46 10.2 °C 9.9 °C 1013.8 hPa ENE 14.5 km/h 20.9 km/h 98 % 0 mm
17:51 10.1 °C 9.8 °C 1013.8 hPa East 12.9 km/h 19.3 km/h 98 % 0 mm
17:56 10.1 °C 9.8 °C 1013.8 hPa East 14.5 km/h 19.3 km/h 98 % 0 mm
18:01 10.1 °C 9.8 °C 1013.8 hPa ESE 13.2 km/h 16.7 km/h 98 % 1.52 mm
18:06 10 °C 9.7 °C 1013.8 hPa East 11.4 km/h 20.4 km/h 98 % 1.27 mm
18:11 9.9 °C 9.7 °C 1013.8 hPa East 10.8 km/h 18.5 km/h 98 % 1.52 mm
18:16 9.9 °C 9.7 °C 1013.8 hPa East 10.9 km/h 13 km/h 98 % 1.52 mm
18:21 9.9 °C 9.7 °C 1013.8 hPa East 12.1 km/h 20.4 km/h 98 % 1.52 mm
18:26 9.9 °C 9.7 °C 1013.8 hPa East 13.7 km/h 18.5 km/h 98 % 1.52 mm
18:31 9.9 °C 9.6 °C 1013.8 hPa East 14 km/h 16.7 km/h 98 % 1.78 mm
18:36 9.9 °C 9.6 °C 1013.8 hPa East 12.1 km/h 18.5 km/h 98 % 1.52 mm
18:41 9.8 °C 9.6 °C 1013.4 hPa East 13.4 km/h 18.5 km/h 98 % 1.52 mm
18:46 9.8 °C 9.6 °C 1013.4 hPa East 13 km/h 18.5 km/h 98 % 1.27 mm
18:51 9.8 °C 9.5 °C 1013.4 hPa East 12.4 km/h 16.7 km/h 98 % 1.02 mm
18:56 9.8 °C 9.5 °C 1013.4 hPa East 12.2 km/h 13 km/h 98 % 1.02 mm
19:01 9.8 °C 9.5 °C 1013.1 hPa East 11.1 km/h 14.5 km/h 98 % 1.02 mm
19:07 9.8 °C 9.5 °C 1013.1 hPa East 11.9 km/h 14.8 km/h 98 % 1.27 mm
19:12 9.8 °C 9.5 °C 1013.1 hPa East 11.3 km/h 14.8 km/h 98 % 1.02 mm
19:17 9.8 °C 9.5 °C 1013.1 hPa East 12.4 km/h 14.8 km/h 98 % 1.02 mm
19:22 9.8 °C 9.5 °C 1012.8 hPa East 11.1 km/h 16.7 km/h 98 % 1.02 mm
19:27 9.8 °C 9.5 °C 1012.8 hPa ENE 12.7 km/h 17.7 km/h 98 % 1.27 mm
19:32 9.8 °C 9.6 °C 1012.8 hPa ENE 16.9 km/h 20.4 km/h 98 % 1.27 mm
19:33 9.8 °C 9.6 °C 1012.8 hPa East 13.8 km/h 20.4 km/h 98 % 1.27 mm
19:38 9.9 °C 9.7 °C 1012.8 hPa East 14 km/h 18.5 km/h 98 % 1.78 mm
19:43 9.9 °C 9.7 °C 1012.8 hPa East 13.5 km/h 20.4 km/h 98 % 2.03 mm
19:48 10 °C 9.7 °C 1012.8 hPa ENE 18.2 km/h 25.9 km/h 98 % 2.03 mm
19:53 10.1 °C 9.8 °C 1012.4 hPa East 15.9 km/h 22.2 km/h 98 % 2.54 mm
19:58 10.1 °C 9.8 °C 1012.4 hPa ENE 18.8 km/h 27.8 km/h 98 % 2.54 mm
20:03 10.1 °C 9.8 °C 1012.4 hPa East 18.5 km/h 25.9 km/h 98 % 2.29 mm
20:08 10.1 °C 9.8 °C 1012.4 hPa ENE 18.5 km/h 29.6 km/h 98 % 2.54 mm
20:13 10.2 °C 9.9 °C 1012.8 hPa ENE 14.5 km/h 20.9 km/h 98 % 2.54 mm
20:18 10.2 °C 9.9 °C 1012.8 hPa East 14.6 km/h 18.5 km/h 98 % 2.54 mm
20:24 10.1 °C 9.8 °C 1012.8 hPa East 14.5 km/h 20.9 km/h 98 % 2.79 mm
20:29 10.1 °C 9.8 °C 1012.8 hPa East 15 km/h 22.2 km/h 98 % 2.79 mm
20:34 9.9 °C 9.7 °C 1012.4 hPa East 15.6 km/h 20.4 km/h 98 % 2.29 mm
20:39 9.9 °C 9.7 °C 1012.8 hPa East 12.7 km/h 16.7 km/h 98 % 2.29 mm
20:44 9.9 °C 9.7 °C 1012.4 hPa East 13.8 km/h 20.4 km/h 98 % 2.29 mm
20:49 10 °C 9.7 °C 1012.4 hPa East 15.1 km/h 18.5 km/h 98 % 2.54 mm
20:54 9.9 °C 9.7 °C 1012.4 hPa East 15.1 km/h 20.4 km/h 98 % 2.54 mm
20:59 9.9 °C 9.7 °C 1012.4 hPa East 13.5 km/h 16.7 km/h 98 % 2.79 mm
21:04 9.9 °C 9.6 °C 1012.4 hPa East 14.5 km/h 18.5 km/h 98 % 2.79 mm
21:09 9.8 °C 9.6 °C 1012.4 hPa East 11.3 km/h 18.5 km/h 98 % 2.79 mm
21:15 9.8 °C 9.6 °C 1012.4 hPa East 12.9 km/h 16.7 km/h 98 % 2.79 mm
21:20 9.8 °C 9.5 °C 1012.4 hPa East 14.5 km/h 18.5 km/h 98 % 2.79 mm
21:25 9.8 °C 9.5 °C 1012.4 hPa ESE 14.5 km/h 18.5 km/h 98 % 2.54 mm
21:30 9.8 °C 9.5 °C 1012.1 hPa East 13.5 km/h 18.5 km/h 98 % 2.29 mm
21:35 9.8 °C 9.5 °C 1012.1 hPa ENE 15.6 km/h 22.2 km/h 98 % 2.29 mm
21:40 9.8 °C 9.5 °C 1012.1 hPa East 13.8 km/h 18.5 km/h 98 % 2.29 mm
21:45 9.8 °C 9.5 °C 1012.1 hPa East 16.7 km/h 20.9 km/h 98 % 2.03 mm
21:50 9.8 °C 9.5 °C 1012.1 hPa East 14 km/h 16.7 km/h 98 % 1.78 mm
21:55 9.8 °C 9.6 °C 1012.1 hPa East 14 km/h 18.5 km/h 98 % 1.02 mm
22:00 9.8 °C 9.6 °C 1012.1 hPa ENE 15.8 km/h 20.4 km/h 98 % 0.76 mm
22:05 9.8 °C 9.5 °C 1011.7 hPa ENE 15.3 km/h 20.4 km/h 98 % 0.76 mm
22:11 9.8 °C 9.6 °C 1011.7 hPa East 15.3 km/h 18.5 km/h 98 % 0.76 mm
22:16 9.8 °C 9.6 °C 1011.7 hPa East 16.1 km/h 20.9 km/h 98 % 0 mm
22:21 9.8 °C 9.6 °C 1011.7 hPa East 14.5 km/h 24.1 km/h 98 % 0 mm
22:26 9.8 °C 9.6 °C 1011.4 hPa East 16.1 km/h 32.2 km/h 98 % 0 mm
22:31 9.8 °C 9.6 °C 1011.4 hPa East 15.1 km/h 18.5 km/h 98 % 0.51 mm
22:36 9.8 °C 9.5 °C 1011.4 hPa East 16.1 km/h 20.9 km/h 98 % 0 mm
22:41 9.8 °C 9.5 °C 1011.4 hPa East 16.1 km/h 29 km/h 98 % 0 mm
22:46 9.8 °C 9.5 °C 1011.4 hPa East 16.1 km/h 24.1 km/h 98 % 0 mm
22:51 9.8 °C 9.5 °C 1011.4 hPa East 16.1 km/h 24.1 km/h 98 % 0 mm
22:56 9.8 °C 9.5 °C 1011.4 hPa East 16.1 km/h 22.5 km/h 98 % 0 mm
23:01 9.7 °C 9.4 °C 1011.1 hPa East 14.8 km/h 18.5 km/h 98 % 0.25 mm
23:06 9.7 °C 9.4 °C 1011.1 hPa East 13.7 km/h 20.4 km/h 98 % 0.25 mm
23:11 9.7 °C 9.4 °C 1011.1 hPa East 14.2 km/h 18.5 km/h 98 % 0 mm
23:16 9.7 °C 9.4 °C 1011.1 hPa East 14.2 km/h 20.4 km/h 98 % 0.25 mm
23:21 9.7 °C 9.4 °C 1011.1 hPa East 13.5 km/h 18.5 km/h 98 % 0.25 mm
23:26 9.7 °C 9.4 °C 1011.1 hPa East 14.2 km/h 16.7 km/h 98 % 0.25 mm
23:31 9.6 °C 9.3 °C 1011.1 hPa ENE 14.5 km/h 18.5 km/h 98 % 0.25 mm
23:36 9.6 °C 9.3 °C 1011.1 hPa East 14 km/h 20.4 km/h 98 % 0.25 mm
23:41 9.6 °C 9.3 °C 1010.7 hPa East 13.2 km/h 17.7 km/h 98 % 0.25 mm
23:46 9.6 °C 9.3 °C 1010.7 hPa ENE 14.5 km/h 18.5 km/h 98 % 0.25 mm
23:51 9.6 °C 9.3 °C 1010.7 hPa East 15 km/h 20.4 km/h 98 % 0.51 mm
23:56 9.7 °C 9.4 °C 1010.7 hPa East 14.5 km/h 22.2 km/h 98 % 0.51 mm
Crab Meadow Weather
Compliments of Weather Underground - 3 mb

Script developed by  Jim McMurry - jmcmurry@mwt.net Adapted for the template by  Wim van der Kuil - Leuven-Template.eu

Weather Terms: Heavy Snow Warning - Snowfall of 6 inches or more in 12 hours or less, or 8 inches or more in 24 hours or less.